DW7394 Weather Reports


Display with metric or nautical units.
time (UTC)temp
F
wind
direction
speed
MPH
gust
MPH
rain 1hr
in
rain 24hr
in
rain mn
in
humidity
%
barometer
mb
20260510093523 49 337 2.0 5.0 0.00 0.28 0.00 76 1011.6
20260510093023 49 356 3.0 6.0 0.00 0.28 0.00 76 1011.5
20260510092521 49 1 3.0 7.0 0.00 0.28 0.00 75 1011.5
20260510092019 49 8 3.0 7.0 0.00 0.28 0.00 75 1011.3
20260510091518 49 345 3.0 9.0 0.00 0.28 0.00 75 1011.1
20260510091018 49 15 5.0 11.0 0.00 0.28 0.00 75 1011.2
20260510090518 49 340 4.0 11.0 0.00 0.28 0.00 75 1011.1
20260510090019 48 334 4.0 9.0 0.00 0.28 0.00 74 1010.9
20260510085516 48 42 3.0 7.0 0.00 0.28 0.00 75 1010.8
20260510085017 48 356 3.0 7.0 0.00 0.28 0.00 75 1010.8
20260510084514 48 41 3.0 5.0 0.00 0.28 0.00 75 1010.7
20260510084013 48 32 2.0 6.0 0.00 0.28 0.00 75 1010.8
20260510083517 48 51 2.0 6.0 0.00 0.28 0.00 74 1010.7
20260510083012 49 339 1.0 4.0 0.00 0.28 0.00 74 1010.4
20260510082511 49 15 0.0 4.0 0.00 0.28 0.00 74 1010.5
20260510082010 49 344 2.0 4.0 0.00 0.28 0.00 74 1010.5
20260510081527 49 322 1.0 3.0 0.00 0.28 0.00 73 1010.5
20260510081007 49 41 0.0 2.0 0.00 0.28 0.00 73 1010.3
20260510080507 49 74 0.0 3.0 0.00 0.28 0.00 73 1010.2
20260510080005 49 27 0.0 3.0 0.00 0.28 0.00 73 1010.1
20260510075504 49 84 0.0 3.0 0.00 0.28 0.00 73 1009.9
20260510075003 49 51 1.0 5.0 0.00 0.28 0.00 73 1009.9
20260510074503 49 23 2.0 6.0 0.00 0.28 0.00 73 1009.9
20260510074001 50 41 2.0 6.0 0.00 0.28 0.00 73 1009.7
20260510073501 50 356 2.0 7.0 0.00 0.28 0.00 73 1009.7
20260510073106 50 356 3.0 7.0 0.00 0.28 0.00 73 1009.7
20260510072600 50 356 3.0 7.0 0.00 0.28 0.00 74 1009.7
20260510072058 50 18 1.0 6.0 0.00 0.28 0.00 73 1009.5
20260510071559 50 11 3.0 6.0 0.00 0.28 0.00 73 1009.5
20260510071056 50 347 4.0 7.0 0.00 0.28 0.00 73 1009.5
20260510070656 50 18 4.0 9.0 0.00 0.28 0.00 73 1009.4
20260510070054 50 340 4.0 10.0 0.00 0.28 0.00 74 1009.3
20260510065555 50 25 5.0 10.0 0.00 0.28 0.00 74 1009.1
20260510065054 50 356 4.0 8.0 0.00 0.28 0.00 75 1009.2
20260510064559 50 339 4.0 8.0 0.00 0.28 0.00 75 1009.1
20260510064054 50 10 3.0 12.0 0.00 0.28 0.00 76 1009.1
20260510063552 50 25 4.0 12.0 0.00 0.28 0.00 76 1009.1
20260510063052 50 18 5.0 8.0 0.00 0.28 0.00 77 1009.1
20260510062551 51 15 3.0 8.0 0.00 0.28 0.00 78 1009.1
20260510062054 51 8 3.0 11.0 0.00 0.28 0.00 78 1009.2
20260510061549 51 322 5.0 12.0 0.00 0.28 0.00 79 1009.2
20260510061046 51 3 4.0 13.0 0.00 0.28 0.00 79 1009.2
20260510060547 51 356 7.0 13.0 0.00 0.28 0.00 79 1009.2
20260510060048 52 4 6.0 13.0 0.00 0.28 0.00 79 1009.1
20260510055542 52 25 7.0 14.0 0.00 0.28 0.00 79 1009.0
20260510055041 53 6 8.0 18.0 0.00 0.28 0.00 78 1008.9
20260510054540 54 340 6.0 18.0 0.00 0.28 0.00 78 1008.7
20260510054038 54 4 10.0 15.0 0.00 0.28 0.00 79 1008.7
20260510053536 55 356 6.0 14.0 0.00 0.28 0.00 79 1008.6
20260510053042 56 39 8.0 14.0 0.00 0.28 0.00 79 1008.6
20260510052535 56 9 4.0 9.0 0.00 0.28 0.00 79 1008.5
20260510052034 56 335 0.0 9.0 0.00 0.28 0.00 79 1008.5
20260510051539 56 218 2.0 11.0 0.00 0.28 0.00 79 1008.3
20260510051034 56 346 3.0 11.0 0.00 0.28 0.00 79 1008.3
20260510050531 56 333 3.0 9.0 0.00 0.28 0.00 79 1008.3
20260510050039 56 319 3.0 11.0 0.00 0.28 0.00 79 1007.8
20260510045531 56 245 6.0 11.0 0.00 0.30 0.00 79 1007.9
20260510045029 56 290 5.0 14.0 0.00 0.30 0.00 78 1007.5
20260510044543 56 197 6.0 14.0 0.00 0.30 0.00 78 1007.0
20260510044026 56 182 5.0 14.0 0.00 0.30 0.00 78 1006.8
20260510043525 56 201 7.0 15.0 0.00 0.30 0.00 79 1006.7
20260510043024 56 224 9.0 15.0 0.00 0.30 0.00 79 1006.5
20260510042523 56 199 6.0 13.0 0.00 0.30 0.00 79 1006.5
20260510042025 56 212 4.0 10.0 0.00 0.30 0.00 79 1006.5
20260510041521 56 213 4.0 10.0 0.00 0.30 0.00 80 1006.5
20260510041020 56 218 3.0 8.0 0.00 0.30 0.00 80 1006.4
20260510040527 56 205 4.0 12.0 0.00 0.30 0.00 80 1006.4
20260510040033 56 180 5.0 13.0 0.00 0.30 0.00 80 1006.4
20260510035519 56 190 6.0 15.0 0.00 0.31 0.30 80 1006.4
20260510035021 56 245 6.0 19.0 0.00 0.31 0.30 81 1006.5
20260510034518 56 204 9.0 19.0 0.00 0.31 0.30 81 1006.5
20260510034018 56 241 6.0 15.0 0.00 0.31 0.30 81 1006.6
20260510033517 56 196 9.0 20.0 0.00 0.31 0.30 82 1006.6
20260510033018 56 210 7.0 21.0 0.00 0.31 0.30 82 1006.8
20260510032517 56 218 12.0 21.0 0.00 0.31 0.30 82 1006.7
20260510032023 55 231 10.0 19.0 0.00 0.31 0.30 83 1006.7
20260510031517 55 229 11.0 19.0 0.00 0.31 0.30 83 1006.7
20260510031017 55 224 9.0 18.0 0.00 0.31 0.30 84 1006.6
20260510030524 55 211 8.0 19.0 0.00 0.31 0.30 84 1006.6
20260510030017 55 236 5.0 19.0 0.00 0.31 0.30 84 1006.5
20260510025517 55 200 9.0 15.0 0.00 0.31 0.30 84 1006.5
20260510025018 55 205 5.0 8.0 0.00 0.31 0.30 85 1006.5
20260510024516 55 214 3.0 13.0 0.00 0.31 0.30 85 1006.5
20260510024015 55 189 4.0 21.0 0.00 0.31 0.30 85 1006.5
20260510023516 55 224 7.0 25.0 0.00 0.31 0.30 85 1006.6
20260510023015 55 196 13.0 25.0 0.00 0.31 0.30 86 1006.9
20260510022515 54 217 13.0 24.0 0.00 0.31 0.30 86 1007.0
20260510022015 54 205 5.0 14.0 0.00 0.31 0.30 86 1007.0
20260510021515 54 208 3.0 7.0 0.00 0.31 0.30 86 1006.4
20260510021014 54 271 3.0 8.0 0.00 0.31 0.30 86 1006.3
20260510020514 54 194 2.0 8.0 0.00 0.31 0.30 86 1006.3
20260510020020 54 173 2.0 6.0 0.00 0.31 0.30 86 1006.2
20260510015515 54 173 1.0 7.0 0.00 0.31 0.30 86 1006.1
20260510015021 54 181 3.0 10.0 0.00 0.31 0.30 86 1006.2
20260510014514 54 218 4.0 10.0 0.00 0.31 0.30 86 1006.2
20260510014013 54 203 4.0 9.0 0.00 0.31 0.30 85 1006.1
20260510013513 54 130 2.0 12.0 0.00 0.31 0.30 85 1006.0
20260510013013 54 218 5.0 12.0 0.00 0.31 0.30 85 1006.2
20260510012516 54 198 5.0 10.0 0.00 0.31 0.30 85 1006.1
20260510012013 54 259 3.0 9.0 0.00 0.31 0.30 85 1006.0
20260510011516 54 193 4.0 9.0 0.00 0.31 0.30 85 1006.0
20260510011011 54 198 3.0 9.0 0.00 0.31 0.30 85 1005.9
20260510010511 54 197 3.0 10.0 0.00 0.31 0.30 85 1005.9
20260510010011 54 212 5.0 10.0 0.00 0.31 0.30 85 1005.8
20260510005511 55 212 4.0 9.0 0.00 0.35 0.30 85 1005.8
20260510005011 55 239 4.0 11.0 0.00 0.35 0.30 85 1005.7
20260510004511 55 227 5.0 13.0 0.00 0.35 0.30 85 1005.7
20260510004013 55 279 6.0 13.0 0.00 0.35 0.30 85 1005.7
20260510003509 55 217 6.0 13.0 0.00 0.35 0.30 85 1005.8
20260510003010 55 218 6.0 13.0 0.01 0.35 0.30 85 1005.8
20260510002510 55 241 7.0 12.0 0.02 0.35 0.30 85 1005.8
20260510002008 55 197 6.0 15.0 0.02 0.35 0.30 85 1005.8
20260510001607 55 207 6.0 15.0 0.03 0.35 0.30 85 1005.7
20260510001009 56 220 7.0 15.0 0.05 0.35 0.30 85 1005.7
20260510000506 56 269 6.0 15.0 0.07 0.35 0.30 85 1005.7
20260510000014 56 188 9.0 15.0 0.07 0.35 0.30 85 1005.7
20260509235504 55 210 6.0 14.0 0.12 0.41 0.30 84 1005.7
20260509235004 55 293 6.0 13.0 0.17 0.41 0.30 84 1005.4
20260509234504 55 238 6.0 15.0 0.27 0.41 0.30 84 1005.6
20260509234003 55 223 7.0 18.0 0.28 0.41 0.30 83 1005.7
20260509233502 55 247 7.0 18.0 0.28 0.41 0.30 83 1005.5
20260509233001 56 193 5.0 21.0 0.28 0.40 0.28 82 1005.5
20260509232600 56 205 9.0 21.0 0.28 0.40 0.28 82 1005.7
20260509232101 56 235 10.0 25.0 0.27 0.39 0.28 81 1005.8
20260509231600 56 250 10.0 25.0 0.26 0.38 0.27 81 1005.9
20260509231057 57 315 8.0 20.0 0.24 0.36 0.25 79 1006.1
20260509230601 57 218 2.0 16.0 0.22 0.34 0.23 78 1005.8
20260509230058 58 326 3.0 20.0 0.22 0.34 0.23 76 1005.1
20260509225600 59 337 6.0 20.0 0.17 0.35 0.18 75 1005.6
20260509225055 61 313 5.0 25.0 0.12 0.30 0.13 72 1005.8
20260509224554 63 345 9.0 25.0 0.02 0.20 0.03 68 1005.8
20260509224054 66 322 9.0 22.0 0.01 0.19 0.02 63 1005.0
20260509223554 67 254 11.0 26.0 0.00 0.18 0.01 59 1003.7
20260509223059 67 164 11.0 26.0 0.00 0.18 0.01 57 1002.9
20260509222553 68 257 9.0 26.0 0.00 0.18 0.01 57 1002.8
20260509222053 68 165 10.0 24.0 0.00 0.18 0.01 57 1002.9
20260509221552 68 227 14.0 24.0 0.00 0.18 0.01 57 1003.0
20260509221052 68 218 10.0 23.0 0.00 0.18 0.01 57 1003.2
20260509220554 68 218 12.0 25.0 0.00 0.18 0.01 57 1003.3
20260509220056 69 230 14.0 25.0 0.00 0.18 0.01 57 1003.2
20260509215552 69 215 9.0 35.0 0.00 0.19 0.01 56 1003.2
20260509215052 69 224 14.0 35.0 0.00 0.19 0.01 56 1003.0
20260509214552 69 207 14.0 28.0 0.00 0.19 0.01 57 1003.0
20260509214051 69 201 12.0 28.0 0.00 0.19 0.01 58 1002.8
20260509213551 69 182 9.0 27.0 0.00 0.19 0.01 59 1002.9
20260509213051 69 190 13.0 32.0 0.00 0.19 0.01 58 1002.8
20260509212550 69 213 13.0 32.0 0.00 0.19 0.01 57 1002.9
20260509212050 69 185 13.0 31.0 0.00 0.19 0.01 57 1002.9
20260509211549 69 226 12.0 34.0 0.00 0.19 0.01 56 1002.9
20260509211048 69 238 16.0 35.0 0.00 0.19 0.01 57 1003.1
20260509210550 69 232 21.0 35.0 0.00 0.19 0.01 58 1003.2
20260509210047 69 218 12.0 35.0 0.00 0.19 0.01 57 1003.3
20260509205545 69 222 17.0 35.0 0.00 0.19 0.01 58 1003.3
20260509205045 69 200 14.0 35.0 0.00 0.19 0.01 59 1003.4
20260509204545 69 177 12.0 34.0 0.00 0.19 0.01 60 1003.4
20260509204044 69 177 15.0 34.0 0.00 0.19 0.01 59 1003.7
20260509203545 69 182 13.0 36.0 0.00 0.19 0.01 60 1003.7
20260509203043 69 237 17.0 36.0 0.00 0.19 0.01 59 1003.8
20260509202541 69 199 9.0 29.0 0.00 0.19 0.01 60 1003.9
20260509202043 69 218 19.0 30.0 0.00 0.19 0.01 58 1004.0
20260509201551 69 293 12.0 25.0 0.00 0.19 0.01 59 1004.1
20260509201038 69 218 11.0 36.0 0.00 0.19 0.01 57 1004.1
20260509200537 69 203 17.0 36.0 0.00 0.19 0.01 57 1004.2
20260509200047 69 173 20.0 33.0 0.00 0.19 0.01 58 1004.1
20260509195537 69 230 15.0 32.0 0.00 0.19 0.01 58 1004.2
20260509195035 69 238 9.0 33.0 0.00 0.19 0.01 58 1004.2
20260509194536 70 194 18.0 33.0 0.00 0.19 0.01 58 1004.4
20260509194035 70 197 9.0 27.0 0.00 0.19 0.01 58 1004.4
20260509193535 70 162 12.0 25.0 0.00 0.19 0.01 58 1004.4
20260509193037 70 201 10.0 28.0 0.00 0.19 0.01 59 1004.5
20260509192531 69 259 14.0 33.0 0.00 0.19 0.01 61 1004.7
20260509192032 69 133 12.0 34.0 0.00 0.19 0.01 60 1004.7
20260509191529 69 209 12.0 32.0 0.00 0.19 0.01 61 1004.7
20260509191031 68 182 19.0 32.0 0.00 0.19 0.01 60 1005.0
20260509190527 68 206 17.0 32.0 0.00 0.19 0.01 61 1005.1
20260509190027 68 184 15.0 32.0 0.00 0.19 0.01 61 1005.1
20260509185527 67 197 13.0 25.0 0.00 0.19 0.01 61 1005.1
20260509185026 67 203 13.0 25.0 0.00 0.19 0.01 62 1005.2
20260509184538 67 240 11.0 24.0 0.00 0.19 0.01 62 1005.2
20260509184025 67 220 10.0 24.0 0.00 0.19 0.01 62 1005.3
20260509183525 68 212 14.0 26.0 0.00 0.19 0.01 60 1005.4
20260509183025 68 230 12.0 26.0 0.00 0.19 0.01 60 1005.2
20260509182524 68 238 13.0 25.0 0.00 0.19 0.01 62 1005.3
20260509182024 68 203 15.0 25.0 0.00 0.19 0.01 59 1005.4
20260509181523 68 214 9.0 22.0 0.00 0.19 0.01 60 1005.2
20260509181029 68 242 8.0 27.0 0.00 0.19 0.01 60 1005.2
20260509180521 68 185 10.0 27.0 0.00 0.19 0.01 60 1005.1
20260509180021 68 184 14.0 27.0 0.00 0.19 0.01 59 1005.0
20260509175620 68 159 10.0 24.0 0.00 0.19 0.01 59 1005.0
20260509175034 68 250 11.0 24.0 0.00 0.19 0.01 59 1005.3
20260509174533 67 187 8.0 23.0 0.00 0.19 0.01 58 1005.5
20260509174032 67 218 8.0 19.0 0.00 0.19 0.01 58 1005.5
20260509173531 67 175 9.0 22.0 0.00 0.19 0.01 58 1005.5
20260509173032 67 194 12.0 23.0 0.00 0.19 0.01 58 1005.5
20260509172530 67 223 15.0 23.0 0.00 0.19 0.01 59 1005.6
20260509172029 67 227 12.0 21.0 0.00 0.19 0.01 59 1005.6
20260509171539 67 222 9.0 21.0 0.00 0.19 0.01 58 1005.5
20260509171027 67 227 12.0 21.0 0.00 0.19 0.01 58 1005.5
20260509170526 67 216 4.0 20.0 0.00 0.19 0.01 62 1005.5
20260509170025 66 132 8.0 22.0 0.00 0.19 0.01 62 1005.5
20260509165524 66 219 8.0 24.0 0.00 0.19 0.01 63 1005.5
20260509165022 65 232 13.0 24.0 0.00 0.19 0.01 62 1005.6
20260509164522 65 195 11.0 23.0 0.00 0.19 0.01 62 1005.6
20260509164021 65 200 13.0 21.0 0.00 0.19 0.01 63 1005.5
20260509163519 64 182 12.0 21.0 0.00 0.19 0.01 63 1005.6
20260509163019 64 218 8.0 22.0 0.00 0.19 0.01 64 1005.5
20260509162518 64 207 11.0 22.0 0.00 0.19 0.01 63 1005.7
20260509162016 65 189 8.0 25.0 0.00 0.19 0.01 64 1005.8
20260509161515 65 215 10.0 25.0 0.00 0.19 0.01 65 1005.9
20260509161018 65 269 12.0 25.0 0.00 0.19 0.01 65 1006.0
20260509160513 65 264 11.0 22.0 0.00 0.19 0.01 66 1006.1
20260509160018 65 218 14.0 22.0 0.00 0.19 0.01 68 1006.2
20260509155511 64 187 12.0 21.0 0.00 0.19 0.01 68 1006.2
20260509155011 64 253 11.0 21.0 0.00 0.19 0.01 67 1006.1
20260509154508 63 215 11.0 23.0 0.00 0.19 0.01 70 1006.1
20260509154006 63 218 11.0 23.0 0.00 0.19 0.01 72 1006.2
20260509153505 62 91 5.0 23.0 0.00 0.19 0.01 73 1006.2
20260509153008 61 186 7.0 17.0 0.00 0.19 0.01 76 1006.3
20260509152503 60 227 10.0 21.0 0.00 0.19 0.01 78 1006.3
20260509152001 59 305 8.0 21.0 0.00 0.19 0.01 79 1006.2
20260509151605 58 226 12.0 21.0 0.00 0.19 0.01 79 1006.2
20260509151059 58 241 8.0 20.0 0.00 0.19 0.01 79 1006.2
20260509150557 58 252 4.0 17.0 0.00 0.19 0.01 80 1006.1
20260509150114 58 226 9.0 20.0 0.00 0.19 0.01 81 1006.3
20260509145556 58 206 4.0 20.0 0.00 0.19 0.01 82 1006.2
20260509145055 57 218 9.0 17.0 0.00 0.19 0.01 82 1006.2
20260509144706 57 217 8.0 13.0 0.00 0.19 0.01 83 1006.2
20260509144056 57 290 5.0 13.0 0.00 0.19 0.01 84 1006.2
20260509143552 56 97 4.0 13.0 0.00 0.19 0.01 84 1006.2
20260509143052 56 266 5.0 16.0 0.00 0.19 0.01 84 1006.2
20260509142552 56 225 9.0 16.0 0.00 0.19 0.01 85 1006.3
20260509142049 56 245 6.0 13.0 0.00 0.19 0.01 85 1006.2
20260509141548 56 267 7.0 14.0 0.00 0.19 0.01 86 1006.2
20260509141048 55 225 7.0 14.0 0.00 0.19 0.01 86 1006.3
20260509140546 55 224 7.0 15.0 0.00 0.19 0.01 86 1006.3
20260509140046 55 356 6.0 20.0 0.00 0.19 0.01 87 1006.4
20260509135545 55 206 8.0 20.0 0.00 0.20 0.01 87 1006.3
20260509135045 55 226 9.0 18.0 0.00 0.20 0.01 87 1006.2
20260509134547 55 212 7.0 21.0 0.00 0.20 0.01 88 1006.3
20260509134043 55 257 10.0 21.0 0.00 0.20 0.01 88 1006.3
20260509133542 55 214 10.0 19.0 0.00 0.20 0.01 88 1006.2
20260509133042 55 171 6.0 14.0 0.00 0.20 0.01 89 1006.4
20260509132541 55 273 6.0 18.0 0.00 0.20 0.01 89 1006.5
20260509132040 54 212 10.0 18.0 0.00 0.20 0.01 89 1006.4
20260509131541 54 252 7.0 17.0 0.00 0.20 0.01 89 1006.3
20260509131037 54 202 8.0 15.0 0.00 0.20 0.01 89 1006.3
20260509130536 54 240 6.0 14.0 0.00 0.20 0.01 89 1006.3
20260509130036 53 216 7.0 17.0 0.00 0.20 0.01 89 1006.3
20260509125534 54 213 5.0 17.0 0.00 0.22 0.01 89 1006.4
20260509125034 53 218 6.0 16.0 0.00 0.22 0.01 89 1006.5
20260509124547 53 231 7.0 16.0 0.00 0.22 0.01 89 1006.5
20260509124036 53 216 6.0 16.0 0.00 0.22 0.01 89 1006.5
20260509123533 53 194 7.0 16.0 0.00 0.22 0.01 89 1006.5
20260509123033 53 228 6.0 14.0 0.00 0.22 0.01 89 1006.6
20260509122531 53 182 6.0 14.0 0.00 0.22 0.01 89 1006.7
20260509122030 53 197 4.0 12.0 0.00 0.22 0.01 89 1006.7
20260509121533 53 240 6.0 12.0 0.00 0.22 0.01 89 1006.8
20260509121028 53 233 6.0 13.0 0.00 0.22 0.01 89 1006.8
20260509120527 53 218 7.0 13.0 0.00 0.22 0.01 89 1006.7
20260509120027 53 204 6.0 11.0 0.00 0.22 0.01 89 1006.6
20260509115525 53 221 5.0 10.0 0.00 0.22 0.01 89 1006.7
20260509115026 52 245 4.0 14.0 0.00 0.22 0.01 89 1006.7
20260509114525 52 208 7.0 14.0 0.00 0.22 0.01 89 1006.8
20260509114023 52 199 5.0 12.0 0.00 0.22 0.01 89 1006.8
20260509113529 52 209 5.0 12.0 0.00 0.22 0.01 89 1006.8
20260509113023 52 184 4.0 10.0 0.00 0.22 0.01 89 1006.7
20260509112522 52 215 3.0 10.0 0.00 0.22 0.01 89 1006.7
20260509112022 52 196 5.0 10.0 0.00 0.22 0.01 89 1006.7
20260509111520 52 185 5.0 10.0 0.00 0.22 0.01 89 1006.7
20260509111022 52 167 4.0 9.0 0.00 0.22 0.01 89 1006.6
20260509110618 52 216 5.0 10.0 0.00 0.22 0.01 89 1006.6
20260509110018 52 211 5.0 10.0 0.00 0.22 0.01 89 1006.6
20260509105517 52 218 3.0 10.0 0.00 0.22 0.01 89 1006.5
20260509105017 52 180 5.0 11.0 0.00 0.22 0.01 89 1006.5
20260509104529 52 207 5.0 11.0 0.00 0.22 0.01 89 1006.5
20260509104014 52 173 3.0 8.0 0.00 0.22 0.01 89 1006.5
20260509103513 52 196 4.0 8.0 0.00 0.22 0.01 89 1006.5
20260509103012 52 229 3.0 7.0 0.00 0.22 0.01 89 1006.5
20260509102510 52 162 2.0 10.0 0.00 0.22 0.01 89 1006.4
20260509102011 52 192 3.0 10.0 0.00 0.22 0.01 89 1006.5
20260509101509 52 186 5.0 9.0 0.00 0.22 0.01 89 1006.5
20260509101007 52 217 3.0 9.0 0.00 0.22 0.01 89 1006.5
20260509100505 52 173 3.0 8.0 0.00 0.22 0.01 89 1006.5
20260509100005 52 241 4.0 10.0 0.00 0.22 0.01 89 1006.6
20260509095504 52 188 4.0 10.0 0.00 0.22 0.01 89 1006.6
20260509095003 52 194 4.0 9.0 0.00 0.22 0.01 89 1006.6
20260509094505 52 206 4.0 10.0 0.00 0.22 0.01 89 1006.6
20260509094100 52 140 4.0 11.0 0.00 0.22 0.01 89 1006.7
20260509093559 52 210 4.0 14.0 0.00 0.22 0.01 89 1006.7